Terminal Aerodrome Forecast
Issued by NWS

Home | Current Version | Previous Version | Text Only | Print | Product List | Glossary On
Versions: 1 2 3 4 5 6 7 8 9 10 11 12 13 14 15 16 17 18 19 20 21 22 23 24 25 26 27 28 29 30 31 32 33 34 35 36 37 38 39 40 41 42 43 44 45 46 47 48 49 50
000
FTUS44 KLIX 222000 AAA
TAFASD
TAF AMD
KASD 222033Z 2221/2318 20011KT 3SM RA BR BKN020
     FM222100 20011KT P6SM VCSH SCT020 BKN035
     FM230300 22008KT P6SM BKN008
      TEMPO 2310/2313 5SM BR
     FM231300 16004KT P6SM VCTS OVC010CB
     FM231700 17009KT 3SM +SHRA VCTS OVC025CB=

USA.gov is the U.S. government's official web portal to all federal, state and local government web resources and services.